SCP
0 0 0 0 0 0 0 0 0 0 0 0 0 -0 0 -0 0 0 0 0 0 0 0 0 0 0 0 0 0 0 0 0 0 0 0 0 0 0 0 0 0 0 0 -0
0 0 0 0 0 0 0 0 0 0 0 0 0 0 0 -0 0 0 0 0 0 0 0 0 0 0 0 0 0 0 0 0 0 0 0 0 0 0 0 0 0 0 0 -0
0 0 0 0 0 0 0 0 0 0 0 0 0 0 -0 -0 -0 0 0 0 0 0 0 0 0 0 0 0 0 0 0 0 0 0 0 0 0 0 0 0 0 0 0 0
0 0 0 0 0 0 0 0 0 0 0 0 0 0 -0 -0 0 0 0 0 0 0 0 0 0 0 0 0 0 0 0 0 0 0 0 0 0 0 0 0 0 0 0 0
0 0 0 0 0 0 0 0 0 0 0 0 0 0 0 0 0 0 0 0 0 0 0 0 0 0 0 0 0 0 0 0 0 0 0 0 0 0 0 0 0 0 0 0
0 0 0 0 0 0 0 0 0 0 0 0 0 0 0 0 0 0 0 0 0 0 0 0 0 0 0 0 0 0 0 0 0 0 0 0 0 0 0 0 0 0 0 0
0 0 0 0 0 0 0 0 0 0 0 0 -0 0 0 0 0 0 0 0 0 0 0 0 0 0 0 0 0 0 0 0 0 0 0 0 0 0 0 0 0 0 0 0
0 0 0 0 0 0 0 0 0 0 0 0 0 0 -0 -0 0 0 0 0 0 0 0 0 0 0 0 0 0 0 0 0 0 0 0 0 0 0 0 0 0 0 0 0
0 0 0 0 0 0 0 0 0 0 0 0 0 0 0 0 0 0 0 0 0 0 0 0 0 0 0 0 0 0 0 0 0 0 0 0 0 0 0 0 0 0 0 0
0 0 0 0 0 0 0 0 0 0 0 0 0 0 0 0 0 0 0 0 0 0 0 0 0 0 0 0 0 0 0 0 0 0 0 0 0 0 0 0 0 0 0 0
0 0 0 0 0 0 0 0 0 0 0 0 0 0 0 0 0 0 0 0 0 0 0 0 0 0 0 0 0 0 0 0 0 0 0 0 0 0 0 0 0 0 0 0
0 0 0 0 0 0 0 0 0 0 0 0 0 0 0 0 0 0 0 0 0 0 0 0 0 0 0 0 0 0 0 0 0 0 0 0 0 0 0 0 0 0 0 0
0 0 0 0 0 0 0 0 0 0 0 0 0 0 0 0 0 0 0 0 0 0 0 0 0 0 0 0 0 0 0 0 0 0 0 0 0 0 0 0 0 0 0 0
0 0 0 0 0 0 0 0 0 0 0 0 0 0 0 0 0 0 0 0 0 0 0 0 0 0 0 0 0 0 0 0 0 0 0 0 0 0 0 0 0 0 0 0
0 0 0 0 0 0 0 0 0 0 0 0 0 0 0 0 0 0 0 0 0 0 0 0 0 0 0 0 0 0 0 0 0 0 0 0 0 0 0 0 0 0 0 0
0 0 0 0 0 0 0 0 0 0 0 0 0 0 0 0 0 0 0 0 0 0 0 0 0 0 0 0 0 0 0 0 0 0 0 0 0 0 0 0 0 0 0 0
0 0 0 0 0 0 0 0 0 0 0 0 0 0 0 0 0 0 0 0 0 0 0 0 0 0 0 0 0 0 0 0 0 0 0 0 0 0 0 0 0 0 0 0
0 0 0 0 0 0 0 0 0 0 0 0 0 0 0 0 0 0 0 0 0 0 0 0 0 0 0 0 0 0 0 0 0 0 0 0 0 0 0 0 0 0 0 0
0 0 0 0 0 0 0 0 0 0 0 0 0 0 0 0 0 0 0 0 0 0 0 0 0 0 0 0 0 0 0 0 0 0 0 0 0 0 0 0 0 0 0 0
0 0 0 0 0 0 0 0 0 0 0 0 0 0 0 0 0 0 0 0 0 0 0 0 0 0 0 0 0 0 0 0 0 0 0 0 0 0 0 0 0 0 0 0
0 0 0 0 0 0 0 0 0 0 0 0 0 0 0 0 0 0 0 0 0 0 0 0 0 0 0 0 0 0 0 0 0 0 0 0 0 0 0 0 0 0 0 0
0 0 0 0 0 0 0 0 0 0 0 0 0 0 0 0 0 0 0 0 0 0 0 0 0 0 0 0 0 0 0 0 0 0 0 0 0 0 0 0 0 0 0 0
0 0 0 0 0 0 0 0 0 0 0 0 0 0 0 0 0 0 0 0 0 0 0 0 0 0 0 0 0 0 0 0 0 0 0 0 0 0 0 0 0 0 0 0
0 0 0 0 0 0 0 0 0 0 0 0 0 0 0 0 0 0 0 0 0 0 0 0 0 0 0 0 0 0 0 0 0 0 0 0 0 0 0 0 0 0 0 0
0 0 0 0 0 0 0 0 0 0 0 0 0 0 0 0 0 0 0 0 0 0 0 0 0 0 0 0 0 0 0 0 0 0 0 0 0 0 0 0 0 0 0 0
0 0 0 0 0 0 0 0 0 0 0 0 0 0 0 0 0 0 0 0 0 0 0 0 0 0 0 0 0 0 0 0 0 0 0 0 0 0 0 0 0 0 0 0
0 0 0 0 0 0 0 0 0 0 0 0 0 0 0 0 0 0 0 0 0 0 0 0 0 0 0 0 0 0 0 0 0 0 0 0 0 0 0 0 0 0 0 0
Wind_Speed_500mb
76 67 66 59 54 49 47 40 10 45 63 11 6 11 14 12 7 43 18 20 28 48 59 35 27 40 25 49 36 35 7 12 13 5 3 13 7 17 17 13 13 10 10 24
75 70 67 58 51 46 55 33 14 50 59 12 12 10 11 20 11 16 18 16 14 42 33 22 16 28 15 59 38 38 20 11 14 8 7 7 17 20 25 9 2 17 12 20
73 69 63 54 43 48 40 22 8 13 32 12 19 13 11 14 28 15 11 12 34 39 23 14 18 35 13 59 55 18 18 11 17 23 18 25 14 33 35 29 9 34 32 58
72 65 58 52 43 46 33 12 7 12 13 18 18 21 19 14 13 15 15 7 46 48 13 18 22 20 17 23 42 16 11 9 11 7 23 21 31 42 39 42 59 28 58 52
65 63 55 49 40 38 18 12 9 10 2 20 21 21 16 9 10 17 21 33 48 44 34 24 55 41 28 28 27 24 6 9 16 7 19 15 15 38 51 59 58 50 57 47
50 53 48 41 36 30 10 11 15 10 8 9 18 13 16 8 15 23 19 42 50 49 25 34 57 49 43 42 43 30 21 13 11 13 18 14 10 41 46 44 47 50 41 64
38 42 39 34 27 18 13 18 15 5 5 4 16 12 22 15 31 3 12 60 36 27 59 66 52 43 34 51 37 29 29 12 4 8 9 13 2 4 37 48 36 47 40 48
34 33 33 27 22 17 15 18 9 7 5 3 3 8 16 18 22 10 10 40 33 91 74 28 15 7 9 8 9 28 23 13 7 12 19 11 15 12 17 26 32 41 46 51
25 26 26 22 18 15 14 14 12 6 8 7 3 3 6 8 8 5 6 8 66 63 5 9 25 11 11 14 8 4 16 16 9 7 12 18 3 2 8 22 15 32 51 42
20 22 25 23 18 13 10 10 10 6 7 6 8 3 2 6 9 6 10 16 9 20 6 11 11 6 2 18 24 18 18 14 23 9 11 9 11 10 26 11 8 7 15 34
18 20 25 24 20 11 6 13 9 7 6 4 5 9 3 4 8 11 19 19 7 2 7 7 7 8 13 9 16 24 19 17 12 6 12 24 21 15 19 5 6 4 2 3
25 25 25 22 18 12 6 9 11 14 5 7 4 4 6 16 17 5 38 5 24 14 9 4 10 7 9 11 13 4 9 12 13 20 11 6 44 12 28 3 4 3 6 4
29 24 20 21 11 14 12 8 12 21 9 12 8 1 8 12 20 27 20 13 32 5 12 11 6 9 8 10 8 9 5 5 8 8 10 8 32 26 18 13 11 10 7 6
23 20 17 17 17 11 12 14 19 10 7 5 5 15 5 14 27 39 48 7 15 19 14 6 5 7 7 5 9 6 3 19 12 3 2 4 12 23 23 18 13 9 6 6
24 17 19 16 12 11 9 16 12 7 3 4 2 8 16 10 17 32 47 14 12 5 7 7 4 8 8 4 5 5 5 3 12 8 14 8 10 29 26 25 21 19 15 15
24 20 17 16 13 17 13 6 4 7 9 4 0 4 15 20 7 23 32 29 16 7 12 7 7 4 1 7 6 15 24 15 6 2 12 21 29 31 29 29 25 23 18 15
22 20 19 13 7 6 7 5 5 16 10 3 2 4 9 19 12 6 16 20 11 8 10 7 5 4 7 6 6 21 24 20 18 34 31 27 30 24 32 31 33 28 27 23
18 18 20 19 20 25 20 16 16 13 8 7 3 1 3 19 11 4 11 9 10 14 9 7 5 7 12 9 20 28 27 12 26 25 14 32 43 40 39 37 36 37 36 31
17 15 14 11 9 7 6 19 20 19 6 7 5 2 2 16 13 9 8 8 7 8 5 4 7 9 12 14 26 31 34 23 15 30 38 47 49 46 42 40 37 36 35 31
16 10 4 5 6 13 11 6 3 6 12 10 4 4 3 12 10 8 3 10 5 5 5 6 9 7 19 28 24 25 23 18 13 16 37 40 45 39 34 32 31 29 28 23
10 5 4 11 6 4 4 7 9 10 6 11 7 10 4 19 7 5 12 4 3 5 3 2 6 6 9 29 26 26 21 20 21 23 23 23 27 29 26 21 20 18 15 12
10 10 9 8 8 7 10 3 5 8 3 12 5 10 9 9 8 5 10 5 4 6 7 5 6 5 21 26 26 25 23 22 23 21 23 22 22 21 17 15 15 14 14 14
13 4 5 14 15 15 9 6 5 4 17 19 15 5 5 3 15 9 5 7 6 4 7 6 6 12 23 26 24 20 23 24 23 21 21 20 19 16 15 17 19 20 17 18
8 11 12 9 9 7 1 2 3 7 11 25 13 5 6 9 7 4 8 4 2 6 7 7 5 20 24 23 23 22 29 28 25 23 21 19 19 19 20 20 21 21 20 20
13 14 10 9 3 4 9 11 6 18 17 15 4 5 10 8 8 7 4 7 8 8 5 4 9 16 18 21 24 27 27 23 21 19 17 15 16 16 18 19 17 16 16 15
14 23 7 18 4 10 16 24 17 36 22 8 5 5 8 10 5 11 9 4 6 3 4 4 9 18 22 22 22 23 22 20 18 14 13 11 11 11 12 12 9 8 7 7
13 15 24 11 3 6 15 29 37 33 15 6 5 11 4 3 7 7 8 6 3 2 2 5 9 16 21 21 20 19 20 18 15 13 10 10 9 8 6 3 2 4 4 5
Wind_Direction_500mb
161 165 166 168 166 164 156 157 166 167 163 162 169 216 198 191 271 270 204 159 180 164 168 163 160 181 170 160 155 158 124 112 131 103 270 166 142 164 177 194 191 250 309 254
165 159 159 162 161 161 151 160 127 171 174 176 197 186 185 206 191 261 193 168 182 160 156 151 124 155 145 167 173 161 170 125 116 101 62 317 210 195 204 196 81 206 202 261
162 160 164 163 159 162 155 154 137 162 203 219 194 182 199 218 214 242 249 151 139 147 142 94 150 156 159 176 177 159 144 156 177 186 190 138 183 194 197 200 199 229 228 259
159 159 161 162 164 168 169 158 159 177 180 194 208 184 169 193 213 219 225 144 156 150 130 128 147 139 120 166 170 152 156 133 131 92 146 153 192 195 188 201 225 213 238 243
152 154 152 154 158 164 178 145 159 147 192 142 169 190 205 197 191 187 205 162 166 165 176 185 173 158 161 168 183 164 151 133 143 74 151 157 170 202 198 208 225 232 249 266
141 150 151 151 156 159 156 159 148 141 149 153 183 208 188 204 213 227 241 170 165 191 185 158 162 150 148 157 168 166 161 138 141 165 163 142 266 209 201 210 218 224 234 241
135 152 152 155 152 150 149 162 149 131 156 220 205 180 184 212 212 276 266 170 170 163 134 114 108 77 119 155 170 167 155 119 94 138 145 208 176 27 203 204 213 221 245 258
138 143 156 152 155 148 144 159 157 159 131 218 233 179 186 191 225 241 269 157 170 140 127 113 101 49 76 8 147 185 181 144 119 154 204 308 271 177 162 185 239 228 237 252
130 140 154 148 144 144 147 160 153 159 145 201 166 149 181 159 169 128 306 120 140 137 95 100 137 161 135 162 118 2 168 196 153 164 183 217 214 110 216 166 283 213 217 239
137 139 147 152 136 138 147 175 144 149 111 177 168 200 113 171 143 139 98 156 176 167 143 128 147 129 113 157 156 160 164 183 204 183 218 262 234 166 151 150 214 157 216 243
131 137 144 142 130 127 151 158 149 149 115 89 211 214 191 185 195 157 149 151 222 117 115 134 150 133 194 117 153 167 162 157 183 179 212 243 166 128 188 172 127 155 102 80
120 127 126 137 160 156 179 153 154 146 120 133 158 204 213 209 200 189 172 189 174 166 116 110 121 127 165 148 162 223 165 179 167 194 192 184 171 157 206 173 140 164 138 51
118 119 136 160 136 189 231 162 143 126 109 78 65 308 225 227 208 191 197 226 194 187 130 147 132 129 161 163 171 118 178 160 163 135 210 184 188 199 183 184 139 120 108 83
115 112 116 128 153 151 190 171 139 87 81 83 49 42 233 256 233 208 197 252 185 145 142 101 124 119 228 164 119 110 131 147 145 253 303 85 210 191 175 166 155 139 111 77
116 116 111 95 118 134 116 163 134 127 98 121 248 332 29 314 239 222 204 217 162 133 76 52 92 123 126 44 89 80 10 124 193 199 152 147 149 178 173 158 139 133 122 102
113 107 92 85 101 122 118 89 70 168 151 104 69 346 4 30 177 192 190 195 178 99 83 83 84 76 157 116 88 31 24 14 6 76 151 132 133 151 165 153 141 134 127 115
100 97 92 94 92 143 88 94 128 143 128 113 76 345 358 3 30 69 121 149 116 106 90 71 99 58 44 64 97 2 3 22 92 115 118 105 134 130 139 142 133 131 122 116
111 107 95 104 100 97 88 98 138 109 84 70 84 313 352 8 13 30 39 76 86 48 96 88 78 51 35 79 16 3 3 49 80 75 101 135 129 128 126 129 128 128 123 116
119 116 111 100 128 109 104 105 93 66 73 110 61 18 325 358 22 29 44 59 70 59 66 59 61 27 51 17 1 2 3 5 6 85 117 127 121 117 123 129 125 121 114 113
127 119 77 81 80 118 127 69 53 54 26 48 69 315 337 1 11 40 40 39 54 67 48 58 67 82 84 23 10 4 4 26 87 128 98 106 105 110 115 114 114 114 112 110
104 39 61 108 81 128 105 75 42 351 50 20 352 14 14 22 34 46 22 65 3 90 45 40 88 83 30 358 7 15 29 59 81 99 100 106 109 106 104 105 106 109 114 126
105 106 88 23 25 56 77 36 348 40 43 339 341 342 13 18 21 77 9 67 9 80 321 74 78 64 360 2 11 24 34 56 77 95 96 99 109 114 116 115 110 111 117 122
107 78 65 14 348 46 49 4 11 26 343 355 348 8 19 40 30 69 42 52 50 290 43 71 55 3 358 3 14 38 42 56 64 77 91 89 93 102 111 110 112 106 110 116
53 38 38 42 4 46 9 300 279 316 308 329 332 308 38 2 55 11 72 2 345 55 48 59 31 350 352 5 17 36 43 51 59 69 83 90 93 101 106 111 110 108 107 98
60 35 46 50 345 7 350 325 328 348 332 346 335 45 47 16 70 33 94 49 66 37 63 68 354 351 7 17 26 35 45 48 53 63 78 96 101 101 102 105 106 103 98 93
53 45 55 354 18 16 10 2 351 357 355 3 27 72 61 44 33 52 39 13 43 78 54 37 13 16 19 25 30 35 43 46 48 53 71 84 98 105 96 94 97 105 102 94
56 39 25 38 20 355 352 355 349 357 6 34 12 49 52 288 64 60 17 53 55 359 6 344 349 358 14 23 25 28 35 36 34 34 40 49 51 58 62 38 356 342 340 345
Wind_Speed_850mb
76 67 66 59 54 49 47 40 10 45 63 11 6 11 14 12 7 43 18 20 28 48 59 35 27 40 25 49 36 35 7 12 13 5 3 13 7 17 17 13 13 10 10 24
75 70 67 58 51 46 55 33 14 50 59 12 12 10 11 20 11 16 18 16 14 42 33 22 16 28 15 59 38 38 20 11 14 8 7 7 17 20 25 9 2 17 12 20
73 69 63 54 43 48 40 22 8 13 32 12 19 13 11 14 28 15 11 12 34 39 23 14 18 35 13 59 55 18 18 11 17 23 18 25 14 33 35 29 9 34 32 58
72 65 58 52 43 46 33 12 7 12 13 18 18 21 19 14 13 15 15 7 46 48 13 18 22 20 17 23 42 16 11 9 11 7 23 21 31 42 39 42 59 28 58 52
65 63 55 49 40 38 18 12 9 10 2 20 21 21 16 9 10 17 21 33 48 44 34 24 55 41 28 28 27 24 6 9 16 7 19 15 15 38 51 59 58 50 57 47
50 53 48 41 36 30 10 11 15 10 8 9 18 13 16 8 15 23 19 42 50 49 25 34 57 49 43 42 43 30 21 13 11 13 18 14 10 41 46 44 47 50 41 64
38 42 39 34 27 18 13 18 15 5 5 4 16 12 22 15 31 3 12 60 36 27 59 66 52 43 34 51 37 29 29 12 4 8 9 13 2 4 37 48 36 47 40 48
34 33 33 27 22 17 15 18 9 7 5 3 3 8 16 18 22 10 10 40 33 91 74 28 15 7 9 8 9 28 23 13 7 12 19 11 15 12 17 26 32 41 46 51
25 26 26 22 18 15 14 14 12 6 8 7 3 3 6 8 8 5 6 8 66 63 5 9 25 11 11 14 8 4 16 16 9 7 12 18 3 2 8 22 15 32 51 42
20 22 25 23 18 13 10 10 10 6 7 6 8 3 2 6 9 6 10 16 9 20 6 11 11 6 2 18 24 18 18 14 23 9 11 9 11 10 26 11 8 7 15 34
18 20 25 24 20 11 6 13 9 7 6 4 5 9 3 4 8 11 19 19 7 2 7 7 7 8 13 9 16 24 19 17 12 6 12 24 21 15 19 5 6 4 2 3
25 25 25 22 18 12 6 9 11 14 5 7 4 4 6 16 17 5 38 5 24 14 9 4 10 7 9 11 13 4 9 12 13 20 11 6 44 12 28 3 4 3 6 4
29 24 20 21 11 14 12 8 12 21 9 12 8 1 8 12 20 27 20 13 32 5 12 11 6 9 8 10 8 9 5 5 8 8 10 8 32 26 18 13 11 10 7 6
23 20 17 17 17 11 12 14 19 10 7 5 5 15 5 14 27 39 48 7 15 19 14 6 5 7 7 5 9 6 3 19 12 3 2 4 12 23 23 18 13 9 6 6
24 17 19 16 12 11 9 16 12 7 3 4 2 8 16 10 17 32 47 14 12 5 7 7 4 8 8 4 5 5 5 3 12 8 14 8 10 29 26 25 21 19 15 15
24 20 17 16 13 17 13 6 4 7 9 4 0 4 15 20 7 23 32 29 16 7 12 7 7 4 1 7 6 15 24 15 6 2 12 21 29 31 29 29 25 23 18 15
22 20 19 13 7 6 7 5 5 16 10 3 2 4 9 19 12 6 16 20 11 8 10 7 5 4 7 6 6 21 24 20 18 34 31 27 30 24 32 31 33 28 27 23
18 18 20 19 20 25 20 16 16 13 8 7 3 1 3 19 11 4 11 9 10 14 9 7 5 7 12 9 20 28 27 12 26 25 14 32 43 40 39 37 36 37 36 31
17 15 14 11 9 7 6 19 20 19 6 7 5 2 2 16 13 9 8 8 7 8 5 4 7 9 12 14 26 31 34 23 15 30 38 47 49 46 42 40 37 36 35 31
16 10 4 5 6 13 11 6 3 6 12 10 4 4 3 12 10 8 3 10 5 5 5 6 9 7 19 28 24 25 23 18 13 16 37 40 45 39 34 32 31 29 28 23
10 5 4 11 6 4 4 7 9 10 6 11 7 10 4 19 7 5 12 4 3 5 3 2 6 6 9 29 26 26 21 20 21 23 23 23 27 29 26 21 20 18 15 12
10 10 9 8 8 7 10 3 5 8 3 12 5 10 9 9 8 5 10 5 4 6 7 5 6 5 21 26 26 25 23 22 23 21 23 22 22 21 17 15 15 14 14 14
13 4 5 14 15 15 9 6 5 4 17 19 15 5 5 3 15 9 5 7 6 4 7 6 6 12 23 26 24 20 23 24 23 21 21 20 19 16 15 17 19 20 17 18
8 11 12 9 9 7 1 2 3 7 11 25 13 5 6 9 7 4 8 4 2 6 7 7 5 20 24 23 23 22 29 28 25 23 21 19 19 19 20 20 21 21 20 20
13 14 10 9 3 4 9 11 6 18 17 15 4 5 10 8 8 7 4 7 8 8 5 4 9 16 18 21 24 27 27 23 21 19 17 15 16 16 18 19 17 16 16 15
14 23 7 18 4 10 16 24 17 36 22 8 5 5 8 10 5 11 9 4 6 3 4 4 9 18 22 22 22 23 22 20 18 14 13 11 11 11 12 12 9 8 7 7
13 15 24 11 3 6 15 29 37 33 15 6 5 11 4 3 7 7 8 6 3 2 2 5 9 16 21 21 20 19 20 18 15 13 10 10 9 8 6 3 2 4 4 5
Wind_Direction_850mb
161 165 166 168 166 164 156 157 166 167 163 162 169 216 198 191 271 270 204 159 180 164 168 163 160 181 170 160 155 158 124 112 131 103 270 166 142 164 177 194 191 250 309 254
165 159 159 162 161 161 151 160 127 171 174 176 197 186 185 206 191 261 193 168 182 160 156 151 124 155 145 167 173 161 170 125 116 101 62 317 210 195 204 196 81 206 202 261
162 160 164 163 159 162 155 154 137 162 203 219 194 182 199 218 214 242 249 151 139 147 142 94 150 156 159 176 177 159 144 156 177 186 190 138 183 194 197 200 199 229 228 259
159 159 161 162 164 168 169 158 159 177 180 194 208 184 169 193 213 219 225 144 156 150 130 128 147 139 120 166 170 152 156 133 131 92 146 153 192 195 188 201 225 213 238 243
152 154 152 154 158 164 178 145 159 147 192 142 169 190 205 197 191 187 205 162 166 165 176 185 173 158 161 168 183 164 151 133 143 74 151 157 170 202 198 208 225 232 249 266
141 150 151 151 156 159 156 159 148 141 149 153 183 208 188 204 213 227 241 170 165 191 185 158 162 150 148 157 168 166 161 138 141 165 163 142 266 209 201 210 218 224 234 241
135 152 152 155 152 150 149 162 149 131 156 220 205 180 184 212 212 276 266 170 170 163 134 114 108 77 119 155 170 167 155 119 94 138 145 208 176 27 203 204 213 221 245 258
138 143 156 152 155 148 144 159 157 159 131 218 233 179 186 191 225 241 269 157 170 140 127 113 101 49 76 8 147 185 181 144 119 154 204 308 271 177 162 185 239 228 237 252
130 140 154 148 144 144 147 160 153 159 145 201 166 149 181 159 169 128 306 120 140 137 95 100 137 161 135 162 118 2 168 196 153 164 183 217 214 110 216 166 283 213 217 239
137 139 147 152 136 138 147 175 144 149 111 177 168 200 113 171 143 139 98 156 176 167 143 128 147 129 113 157 156 160 164 183 204 183 218 262 234 166 151 150 214 157 216 243
131 137 144 142 130 127 151 158 149 149 115 89 211 214 191 185 195 157 149 151 222 117 115 134 150 133 194 117 153 167 162 157 183 179 212 243 166 128 188 172 127 155 102 80
120 127 126 137 160 156 179 153 154 146 120 133 158 204 213 209 200 189 172 189 174 166 116 110 121 127 165 148 162 223 165 179 167 194 192 184 171 157 206 173 140 164 138 51
118 119 136 160 136 189 231 162 143 126 109 78 65 308 225 227 208 191 197 226 194 187 130 147 132 129 161 163 171 118 178 160 163 135 210 184 188 199 183 184 139 120 108 83
115 112 116 128 153 151 190 171 139 87 81 83 49 42 233 256 233 208 197 252 185 145 142 101 124 119 228 164 119 110 131 147 145 253 303 85 210 191 175 166 155 139 111 77
116 116 111 95 118 134 116 163 134 127 98 121 248 332 29 314 239 222 204 217 162 133 76 52 92 123 126 44 89 80 10 124 193 199 152 147 149 178 173 158 139 133 122 102
113 107 92 85 101 122 118 89 70 168 151 104 69 346 4 30 177 192 190 195 178 99 83 83 84 76 157 116 88 31 24 14 6 76 151 132 133 151 165 153 141 134 127 115
100 97 92 94 92 143 88 94 128 143 128 113 76 345 358 3 30 69 121 149 116 106 90 71 99 58 44 64 97 2 3 22 92 115 118 105 134 130 139 142 133 131 122 116
111 107 95 104 100 97 88 98 138 109 84 70 84 313 352 8 13 30 39 76 86 48 96 88 78 51 35 79 16 3 3 49 80 75 101 135 129 128 126 129 128 128 123 116
119 116 111 100 128 109 104 105 93 66 73 110 61 18 325 358 22 29 44 59 70 59 66 59 61 27 51 17 1 2 3 5 6 85 117 127 121 117 123 129 125 121 114 113
127 119 77 81 80 118 127 69 53 54 26 48 69 315 337 1 11 40 40 39 54 67 48 58 67 82 84 23 10 4 4 26 87 128 98 106 105 110 115 114 114 114 112 110
104 39 61 108 81 128 105 75 42 351 50 20 352 14 14 22 34 46 22 65 3 90 45 40 88 83 30 358 7 15 29 59 81 99 100 106 109 106 104 105 106 109 114 126
105 106 88 23 25 56 77 36 348 40 43 339 341 342 13 18 21 77 9 67 9 80 321 74 78 64 360 2 11 24 34 56 77 95 96 99 109 114 116 115 110 111 117 122
107 78 65 14 348 46 49 4 11 26 343 355 348 8 19 40 30 69 42 52 50 290 43 71 55 3 358 3 14 38 42 56 64 77 91 89 93 102 111 110 112 106 110 116
53 38 38 42 4 46 9 300 279 316 308 329 332 308 38 2 55 11 72 2 345 55 48 59 31 350 352 5 17 36 43 51 59 69 83 90 93 101 106 111 110 108 107 98
60 35 46 50 345 7 350 325 328 348 332 346 335 45 47 16 70 33 94 49 66 37 63 68 354 351 7 17 26 35 45 48 53 63 78 96 101 101 102 105 106 103 98 93
53 45 55 354 18 16 10 2 351 357 355 3 27 72 61 44 33 52 39 13 43 78 54 37 13 16 19 25 30 35 43 46 48 53 71 84 98 105 96 94 97 105 102 94
56 39 25 38 20 355 352 355 349 357 6 34 12 49 52 288 64 60 17 53 55 359 6 344 349 358 14 23 25 28 35 36 34 34 40 49 51 58 62 38 356 342 340 345